Regional Weather Roundup
Issued by NWS

Home | Current Version | Previous Version | Graphics & Text | Print | Product List | Glossary Off
Versions: 1 2 3 4 5 6 7 8 9 10 11 12 13 14 15 16 17 18 19 20 21 22 23 24 25 26 27 28 29 30 31 32 33 34 35 36 37 38 39 40 41 42 43 44 45 46 47 48 49 50

000
ASUS43 KMKX 301500
RWRWI

WISCONSIN REGIONAL WEATHER ROUNDUP
NATIONAL WEATHER SERVICE MILWAUKEE/SULLIVAN WI
1000 AM CDT SAT JUL 30 2016

NOTE: "FAIR" INDICATES FEW OR NO CLOUDS BELOW 12,000 FEET WITH NO
SIGNIFICANT WEATHER AND/OR OBSTRUCTIONS TO VISIBILITY.

WIZ001-002-006>008-014>016-023>028-301600-
NORTHWEST WISCONSIN

CITY           SKY/WX    TMP DP  RH WIND       PRES   REMARKS
SUPERIOR ARPT  PTSUNNY   64  60  88 NE5       30.07S
ASHLAND        CLOUDY    72  60  66 VRB3      30.07F
HAYWARD        MOSUNNY   72  54  53 S8        30.08S
SIREN          NOT AVBL
CUMBERLAND     PTSUNNY   68  55  64 SE3       30.07F
RICE LAKE      SUNNY     70  56  61 E6        30.08F
CHETEK         SUNNY     70  59  69 NE3       30.07S
LADYSMITH      SUNNY     70  55  59 SE5       30.09F
EAU CLAIRE     NOT AVBL
MENOMONIE      SUNNY     73  61  66 NE5       30.05S
NEW RICHMOND   CLOUDY    71  64  79 SE5       30.05S
OSCEOLA        SUNNY     71  69  90 CALM      30.07F
$$

WIZ003>005-009-010-017-018-301600-
NORTH CENTRAL WISCONSIN

CITY           SKY/WX    TMP DP  RH WIND       PRES   REMARKS
MANITOWISH WTR CLOUDY    68  59  73 E3        30.11S
ARBOR VITAE    SUNNY     72  58  61 E6        30.10S
WOODRUFF       SUNNY     72  58  61 E6        30.10S
RHINELANDER    SUNNY     70  58  65 E7        30.11S
EAGLE RIVER    SUNNY     70  56  61 E7        30.10F
LAND O LAKES   SUNNY     71  54  54 S5        30.12S
PHILLIPS       SUNNY     70  56  62 E6        30.09S
TOMAHAWK       SUNNY     68  58  69 CALM      30.11S
MEDFORD        SUNNY     68  60  76 E5        30.08F
MERRILL        SUNNY     69  61  76 E6        30.09S
$$

WIZ029-030-035-036-043>047-301600-
CENTRAL WISCONSIN

CITY           SKY/WX    TMP DP  RH WIND       PRES   REMARKS
WAUSAU         SUNNY     70  61  73 E8        30.06F
MOSINEE        SUNNY     70  61  73 E7        30.08F
MARSHFIELD     MOSUNNY   72  61  68 VRB6      30.06F
STEVENS POINT  CLOUDY    67  60  77 E6        30.07S
WAUPACA        CLOUDY    70  63  79 NE3       30.07S
WAUTOMA        CLOUDY    69  63  81 NE9       30.05F
WISC RAPIDS    CLOUDY    70  59  68 E9        30.07S
CAMP DOUGLAS   NOT AVBL
$$

WIZ011>013-019>022-031-037>040-048>050-301600-
NORTHEAST WISCONSIN

CITY           SKY/WX    TMP DP  RH WIND       PRES   REMARKS
ANTIGO         SUNNY     68  60  77 E9        30.10S
SHAWANO        PTSUNNY   73  60  64 E7        30.08S
OCONTO         SUNNY     71  60  68 E8        30.07S
STURGEON BAY   SUNNY     72  56  57 E6        30.09R
GREEN BAY      SUNNY     73  62  68 NE12      30.06S
MANITOWOC      NOT AVBL
APPLETON       PTSUNNY   72  55  56 NE9       30.05S
CLINTONVILLE   PTSUNNY   70  59  68 E7        30.07S
OSHKOSH        CLOUDY    72  60  66 NE12      30.05S
$$

WIZ032>034-041-042-053>061-301600-
SOUTHWEST WISCONSIN

CITY           SKY/WX    TMP DP  RH WIND       PRES   REMARKS
LA CROSSE      PTSUNNY   74  62  66 E6        30.02F
SPARTA         SUNNY     71  62  71 CALM      30.05S
VIROQUA        CLOUDY    69  62  77 E5        30.05S
BOSCOBEL       CLOUDY    72  64  76 N6        30.02F
PRAIRIE DU CHI CLOUDY    69  62  79 CALM      30.01F
PLATTEVILLE    MOSUNNY   71  67  88 E7        30.02F
$$

WIZ056-057-062-063-064-067-068-301600-
SOUTH CENTRAL WISCONSIN

CITY           SKY/WX    TMP DP  RH WIND       PRES   REMARKS
REEDSBURG      CLOUDY    67  63  86 NE6       30.03F
BARABOO/DELLS  CLOUDY    66  61  84 NE5       30.05S
LONE ROCK      NOT AVBL
MINERAL POINT  MOSUNNY   70  64  83 E5        30.03F
MADISON        CLOUDY    70  62  76 NE10      30.02F
MIDDLETON      CLOUDY    71  61  71 N5        30.04S
WATERTOWN      CLOUDY    70  64  80 NE7       30.02S
MONROE         CLOUDY    68  63  83 E7        30.02F
JANESVILLE     PTSUNNY   73  64  73 E9        30.00F
$$

WIZ051-052-058>065-066-070>072-301600-
SOUTHEAST WISCONSIN

CITY           SKY/WX    TMP DP  RH WIND       PRES   REMARKS
MILWAUKEE      PTSUNNY   72  64  76 NE12      30.02S
WAUKESHA       MOSUNNY   72  61  68 E9        30.03S
MILWAUKEE/TIMM PTSUNNY   72  59  64 NE13      30.03S
RACINE         CLOUDY    73  65  75 N12       30.03S
BURLINGTON     MOSUNNY   73  64  73 NE8       30.01S
KENOSHA        CLOUDY    72  64  76 NE10      30.01S
FOND DU LAC    CLOUDY    75  61  61 NE9       30.05S
SHEBOYGAN      CLOUDY    72  62  71 NE14      30.05S
WEST BEND      CLOUDY    72  61  68 NE7       30.04S
JUNEAU         CLOUDY    68  62  79 N8        30.05S
$$

LSZ147-162-301600-
LAKE SUPERIOR

STATION/POSITION TIME  TEMP    WIND        PRES    WAVE
                       AIR SEA DIR/SP/G            HT/PER
                 (UTC) (F)     (DEG/KT/KT) (MB)    (FT/S)
W MID LAKE BUOY  1350   63 61  120/  8/  8 1018.0R   1
DEVILS ISLAND    1400   67     360/  2/  3 1018.3R
PORT WING        1400   59     310/  3/  4 1018.6R
SAXON HARBOR     1440   67      30/  3/  4 1018.3S
$$

LMZ867-665-643>646-301600-
LAKE MICHIGAN

STATION/POSITION TIME  TEMP    WIND        PRES    WAVE
                       AIR SEA DIR/SP/G            HT/PER
                 (UTC) (F)     (DEG/KT/KT) (MB)    (FT/S)
CHAMBERS ISLAND  1400   71      70/  9/ 11 1018.3F
S GREEN BAY BUOY 1430   70 71   80/ 10/ 12 1017.7F
N MID LAKE BUOY  1350   69 69   90/ 10/ 12 1018.3R   1/ 3
NORTHPORT PIER   1400   75      90/  6/  9 1019.0R
SISTER BAY       1406   77     130/ 11/ 14   N/A
ALGOMA LAKESHORE 1313           80/ 17/ 19   N/A
KEWAUNEE LAKESHO 1400   69      60/  5/  8 1017.6R
SHEBOYGAN LAKESH 1400   68      50/ 11/ 12 1017.5R
PORT WASHINGTON  1400   72      60/  4/  6 1017.6
ATWATER BUOY     1400   64 61   10/  6/  8 1018.3R
MILWAUKEE LAKESH 1410   66      30/  8/  8   N/A
S MID LAKE BUOY  1350   67 73   70/ 10/ 14 1015.2R   3/ 4
KENOSHA   LAKESH 1400   69      40/  9/ 11 1015.9R
$$

TC  - TEMPERATURE IN CELSIUS
VSB - VISIBILITY IN STATUTE MILES
WCI - WIND CHILL INDEX
HX  - HEAT INDEX





USA.gov is the U.S. government's official web portal to all federal, state and local government web resources and services.